Sabadell, Spain

5:59 AM CEST en Julio 23, 2018 (GMT +0200)
Sabadell

Tiempo Historia de LELL - Julio, 2018

Change the Weather History Date:

Jueves, Julio 12, 2018

  Actual Average (LEBL) Record (LEBL)
Temperature  
Temperatura media 78 ° F -  
Temperatura máxima 87 ° F 79 ° F 91 ° F (2003)
Temperatura mínima 69 ° F 66 ° F 59 ° F (2000)
Cooling Degree Days 13    
Growing Degree Days 28 (Base 50)    
Moisture  
Punto de rocío 61 ° F    
Average Humidity 57    
Maximum Humidity 83    
Minimum Humidity 39    
Precipitación  
Precipitación 0.00 pul - - ()
Presión al nivel del mar  
Presión al nivel del mar 29.98 pul    
Viento  
Velocidad del viento 5 mph ()    
Velocidad máxima del viento 18 mph    
Max Gust Speed -    
Visibilidad 6.2 Millas    
Eventos      
Averages and records for this station are not official NWS values.
T = Trace of Precipitation, MM = Missing Value Source: Averaged Metar Reports

Daily Weather History Graph

Daily Weather History Graph

Search for Another Location

Airport or City:

Astronomía

Jul. 12, 2018 Salida Puesta
Hora real 6:28 AM CEST 9:25 PM CEST
Crepúsculo civil 5:55 AM CEST 9:58 PM CEST
Crepúsculo náutico 5:12 AM CEST 10:40 PM CEST
Crepúsculo astronómico 4:23 AM CEST 11:29 PM CEST
Luna 5:40 AM CEST (7/12) 8:53 PM CEST (7/12)
Horas de luz 16h 03m
Horas de luz
14h 57m
Creciente menguante, 1% of the Moon is Illuminated
Jul 12
Creciente menguante
Jul 13
Nueva
Jul 19
Cuarto creciente
Jul 27
Luna llena
Ago 4
Cuarto menguante

Hourly Weather History & Observations

Hora (CEST) Temp. Índice de calor Punto de rocío Humedad Presión Visibilidad Wind Dir Velocidad del viento Velocidad de ráfagas Precip Eventos Condiciones
12:00 AM 75.2 ° F - 66.2 ° F 73% 30.01 pul 6.2 mi ONO 4.6 mph - N/A   Parcialmente nublado
12:30 AM 75.2 ° F - 66.2 ° F 73% 30.01 pul 6.2 mi Variable 2.3 mph - N/A   Desconocido
1:00 AM 75.2 ° F - 66.2 ° F 73% 29.98 pul 6.2 mi OSO 1.2 mph - N/A   Desconocido
1:30 AM 75.2 ° F - 68.0 ° F 78% 29.98 pul 6.2 mi Sur 4.6 mph - N/A   Parcialmente nublado
2:00 AM 75.2 ° F - 66.2 ° F 73% 29.92 pul - Norte 4.6 mph - N/A   Despejado
2:30 AM 75.2 ° F - 66.2 ° F 73% 29.95 pul 6.2 mi Sur 3.5 mph - N/A   Desconocido
3:00 AM 73.4 ° F - 66.2 ° F 78% 29.95 pul 6.2 mi SO 3.5 mph - N/A   Desconocido
3:30 AM 73.4 ° F - 66.2 ° F 78% 29.98 pul - Oeste 4.6 mph - N/A   Despejado
4:00 AM 73.4 ° F - 66.2 ° F 78% 29.95 pul 6.2 mi NO 3.5 mph - N/A   Desconocido
4:30 AM 73.4 ° F - 66.2 ° F 78% 29.95 pul - SSO 2.3 mph - N/A   Despejado
5:00 AM 71.6 ° F - 66.2 ° F 83% 29.95 pul 6.2 mi Sur 3.5 mph - N/A   Desconocido
5:30 AM 69.8 ° F - 64.4 ° F 83% 29.95 pul 6.2 mi Oeste 4.6 mph - N/A   Desconocido
6:00 AM 69.8 ° F - 64.4 ° F 83% 29.95 pul 6.2 mi Variable 2.3 mph - N/A   Desconocido
6:30 AM 69.8 ° F - 62.6 ° F 78% 29.95 pul 6.2 mi Variable 1.2 mph - N/A   Desconocido
7:00 AM 69.8 ° F - 62.6 ° F 78% 29.95 pul 6.2 mi Variable 1.2 mph - N/A   Desconocido
7:30 AM 71.6 ° F - 64.4 ° F 78% 29.95 pul - ESE 4.6 mph - N/A   Despejado
8:00 AM 73.4 ° F - 64.4 ° F 73% 29.98 pul - Variable 2.3 mph - N/A   Despejado
8:30 AM 77.0 ° F - 62.6 ° F 61% 29.98 pul - Variable 2.3 mph - N/A   Despejado
9:00 AM 78.8 ° F - 62.6 ° F 57% 29.95 pul - Variable 2.3 mph - N/A   Despejado
9:30 AM 78.8 ° F - 60.8 ° F 54% 29.98 pul - Variable 4.6 mph - N/A   Despejado
10:00 AM 82.4 ° F 82.9 ° F 60.8 ° F 48% 29.98 pul - Norte 3.5 mph - N/A   Despejado
10:30 AM 84.2 ° F 83.8 ° F 59.0 ° F 42% 29.98 pul - NE 3.5 mph - N/A   Despejado
11:00 AM 86.0 ° F 86.1 ° F 60.8 ° F 43% 29.98 pul - NNE 2.3 mph - N/A   Despejado
11:30 AM 86.0 ° F 86.1 ° F 60.8 ° F 43% 29.98 pul 6.2 mi Este 3.5 mph - N/A   Parcialmente nublado
12:00 PM 87.8 ° F 87.6 ° F 60.8 ° F 40% 29.98 pul 6.2 mi ESE 5.8 mph - N/A   Parcialmente nublado
12:30 PM 87.8 ° F 87.6 ° F 60.8 ° F 40% 29.98 pul 6.2 mi ESE 10.4 mph - N/A   Parcialmente nublado
1:00 PM 87.8 ° F 88.5 ° F 62.6 ° F 43% 29.98 pul 6.2 mi SE 10.4 mph - N/A   Parcialmente nublado
1:30 PM 86.0 ° F 87.3 ° F 64.4 ° F 48% 29.98 pul 6.2 mi ESE 11.5 mph - N/A   Parcialmente nublado
2:00 PM 86.0 ° F 88.2 ° F 66.2 ° F 51% 29.98 pul 6.2 mi ESE 15.0 mph - N/A   Parcialmente nublado
2:30 PM 84.2 ° F 86.6 ° F 66.2 ° F 55% 29.98 pul 6.2 mi SE 16.1 mph - N/A   Parcialmente nublado
3:00 PM 84.2 ° F 85.0 ° F 62.6 ° F 48% 29.98 pul 6.2 mi SE 17.3 mph - N/A   Parcialmente nublado
3:30 PM 84.2 ° F 85.0 ° F 62.6 ° F 48% 29.98 pul 6.2 mi SE 18.4 mph - N/A   Parcialmente nublado
4:00 PM 84.2 ° F 85.0 ° F 62.6 ° F 48% 29.98 pul 6.2 mi SE 16.1 mph - N/A   Parcialmente nublado
4:30 PM 84.2 ° F 84.4 ° F 60.8 ° F 45% 29.98 pul 6.2 mi SE 16.1 mph - N/A   Parcialmente nublado
5:00 PM 82.4 ° F 82.9 ° F 60.8 ° F 48% 29.98 pul 6.2 mi SE 12.7 mph - N/A   Parcialmente nublado
5:30 PM 84.2 ° F 83.8 ° F 59.0 ° F 42% 30.01 pul 6.2 mi SE 11.5 mph - N/A   Parcialmente nublado
6:00 PM 82.4 ° F 82.5 ° F 59.0 ° F 45% 29.98 pul 6.2 mi ESE 11.5 mph - N/A   Parcialmente nublado
6:30 PM 82.4 ° F 82.5 ° F 59.0 ° F 45% 29.98 pul 6.2 mi ESE 11.5 mph - N/A   Parcialmente nublado
7:00 PM 82.4 ° F 82.0 ° F 57.2 ° F 42% 29.98 pul 6.2 mi ESE 12.7 mph - N/A   Parcialmente nublado
7:30 PM 82.4 ° F 81.7 ° F 55.4 ° F 39% 29.98 pul - Este 10.4 mph - N/A   Despejado
8:00 PM 80.6 ° F 80.3 ° F 53.6 ° F 39% 30.01 pul - Este 9.2 mph - N/A   Despejado
8:30 PM 80.6 ° F 80.3 ° F 53.6 ° F 39% 30.01 pul - ESE 6.9 mph - N/A   Despejado
9:00 PM 78.8 ° F - 51.8 ° F 39% 30.01 pul - ESE 5.8 mph - N/A   Despejado
9:30 PM 78.8 ° F - 53.6 ° F 42% 30.01 pul 6.2 mi ESE 3.5 mph - N/A   Desconocido
10:00 PM 77.0 ° F - 51.8 ° F 41% 30.01 pul 6.2 mi Este 5.8 mph - N/A   Desconocido
10:30 PM 77.0 ° F - 51.8 ° F 41% 30.04 pul 6.2 mi Variable 2.3 mph - N/A   Desconocido
11:00 PM 77.0 ° F - 53.6 ° F 44% 30.04 pul 6.2 mi NNE 3.5 mph - N/A   Desconocido
11:30 PM 75.2 ° F - 53.6 ° F 47% 30.04 pul 6.2 mi NE 3.5 mph - N/A   Desconocido